GW3114 Weather Reports


Display with metric or nautical units.
time (UTC)temp
F
wind
direction
speed
MPH
gust
MPH
rain 1hr
in
rain 24hr
in
rain mn
in
humidity
%
barometer
mb
20260504194652 77 157 2.0 4.0 0.00 0.00 0.00 45 1009.9
20260504193650 77 160 2.0 4.0 0.00 0.00 0.00 39 1010.2
20260504192646 77 211 3.0 4.0 0.00 0.00 0.00 38 1010.4
20260504191642 78 298 5.0 8.0 0.00 0.00 0.00 36 1010.4
20260504190640 74 209 0.0 1.0 0.00 0.00 0.00 44 1010.6
20260504185639 76 212 1.0 2.0 0.00 0.00 0.00 43 1010.9
20260504184638 76 163 5.0 8.0 0.00 0.00 0.00 38 1011.0
20260504183636 76 184 2.0 3.0 0.00 0.00 0.00 42 1011.4
20260504182631 75 287 1.0 2.0 0.00 0.00 0.00 40 1011.3
20260504181631 75 224 2.0 2.0 0.00 0.00 0.00 42 1011.4
20260504180628 74 166 3.0 6.0 0.00 0.00 0.00 41 1011.7
20260504175629 74 220 2.0 3.0 0.00 0.00 0.00 39 1011.9
20260504174624 76 92 3.0 3.0 0.00 0.00 0.00 42 1012.0
20260504173623 73 169 4.0 6.0 0.00 0.00 0.00 40 1012.0
20260504172622 74 191 0.0 1.0 0.00 0.00 0.00 47 1012.1
20260504171621 73 101 3.0 4.0 0.00 0.00 0.00 47 1012.4
20260504170620 72 208 1.0 2.0 0.00 0.00 0.00 50 1012.7
20260504150554 69 170 1.0 2.0 0.00 0.00 0.00 45 1013.9
20260504140545 66 197 1.0 2.0 0.00 0.00 0.00 48 1014.1
20260504130533 59 163 1.0 2.0 0.00 0.00 0.00 60 1014.4
20260504110514 44 177 0.0 0.0 0.00 0.00 0.00 93 1015.3
20260504100505 42 217 0.0 0.0 0.00 0.00 0.00 93 1014.9
20260504081441 43 219 0.0 0.0 0.00 0.00 0.00 94 1015.4
20260504080440 43 228 0.0 0.0 0.00 0.00 0.00 94 1015.1
20260504050409 38 220 0.0 0.0 0.00 0.00 0.00 93 1015.7
20260504045407 37 221 0.0 0.0 0.00 0.00 0.00 92 1015.9
20260504044408 37 223 0.0 0.0 0.00 0.00 0.00 92 1016.1
20260504043407 37 219 0.0 0.0 0.00 0.00 0.00 91 1016.0
20260504042407 37 222 0.0 0.0 0.00 0.00 0.00 91 1015.9
20260504041406 37 220 0.0 0.0 0.00 0.00 0.00 91 1015.9
20260504040405 38 214 0.0 0.0 0.00 0.00 0.00 91 1015.8
20260504035405 38 205 0.0 0.0 0.00 0.00 0.00 90 1015.8
20260504034405 39 228 0.0 0.0 0.00 0.00 0.00 89 1015.8
20260504033400 39 221 0.0 0.0 0.00 0.00 0.00 89 1016.0
20260504032359 39 214 0.0 0.0 0.00 0.00 0.00 88 1016.0
20260504031358 40 227 0.0 0.0 0.00 0.00 0.00 87 1015.8
20260504030358 40 219 0.0 0.0 0.00 0.00 0.00 85 1015.9
20260504025357 41 231 1.0 1.0 0.00 0.00 0.00 84 1015.8
20260504024356 40 216 0.0 0.0 0.00 0.00 0.00 84 1015.6
20260504023356 41 217 0.0 0.0 0.00 0.00 0.00 82 1015.4
20260504022354 42 236 0.0 1.0 0.00 0.00 0.00 80 1015.6
20260504021354 41 218 0.0 0.0 0.00 0.00 0.00 81 1015.6
20260504020353 42 217 0.0 0.0 0.00 0.00 0.00 79 1015.6
20260504015351 43 207 0.0 0.0 0.00 0.00 0.00 78 1015.1
20260504014349 44 219 0.0 0.0 0.00 0.00 0.00 75 1015.0
20260504013345 44 237 1.0 1.0 0.00 0.00 0.00 76 1014.8
20260504012345 45 219 0.0 1.0 0.00 0.00 0.00 72 1014.8
20260504011344 46 217 1.0 1.0 0.00 0.00 0.00 71 1014.9
20260504010342 47 216 0.0 1.0 0.00 0.00 0.00 67 1014.9
20260504005341 48 220 0.0 0.0 0.00 0.00 0.00 64 1015.0
20260504004336 48 216 0.0 0.0 0.00 0.00 0.00 62 1014.8
20260504003336 50 215 0.0 0.0 0.00 0.00 0.00 58 1014.5
20260504002335 51 218 0.0 0.0 0.00 0.00 0.00 54 1014.5
20260504001330 53 222 0.0 0.0 0.00 0.00 0.00 53 1014.4
20260504000329 55 220 0.0 0.0 0.00 0.00 0.00 50 1014.6
20260503235324 57 219 0.0 0.0 0.00 0.00 0.00 47 1014.5
20260503234324 59 223 0.0 0.0 0.00 0.00 0.00 41 1014.4
20260503233323 60 221 0.0 0.0 0.00 0.00 0.00 40 1014.5
20260503232323 63 236 0.0 0.0 0.00 0.00 0.00 37 1014.3
20260503231323 63 275 1.0 2.0 0.00 0.00 0.00 36 1014.0
20260503230322 64 224 1.0 1.0 0.00 0.00 0.00 35 1014.1
20260503225322 64 213 0.0 0.0 0.00 0.00 0.00 33 1014.0
20260503224321 64 211 4.0 6.0 0.00 0.00 0.00 33 1014.1
20260503223317 64 270 1.0 1.0 0.00 0.00 0.00 35 1014.1
20260503222311 65 262 5.0 7.0 0.00 0.00 0.00 33 1014.2
20260503221306 64 251 4.0 6.0 0.00 0.00 0.00 33 1014.0
20260503220305 65 31 4.0 4.0 0.00 0.00 0.00 34 1014.2
20260503215305 65 246 1.0 2.0 0.00 0.00 0.00 34 1014.1
20260503214300 65 241 2.0 3.0 0.00 0.00 0.00 33 1014.3
20260503213300 65 229 1.0 2.0 0.00 0.00 0.00 34 1014.2
20260503212255 65 255 5.0 8.0 0.00 0.00 0.00 32 1014.5
20260503211255 65 248 2.0 3.0 0.00 0.00 0.00 35 1014.5
20260503210253 64 280 4.0 6.0 0.00 0.00 0.00 31 1014.5
20260503205146 65 303 3.0 3.0 0.00 0.00 0.00 37 1014.4
20260503204146 65 303 3.0 3.0 0.00 0.00 0.00 37 1014.4
20260503203141 65 285 2.0 3.0 0.00 0.00 0.00 35 1014.5
20260503202136 65 285 2.0 3.0 0.00 0.00 0.00 35 1014.5
20260503201131 64 246 5.0 6.0 0.00 0.00 0.00 32 1014.7
20260503200129 64 260 1.0 2.0 0.00 0.00 0.00 37 1015.0